www.pogodaiklimat.ru

Погода и климат >> Архив погоды >> Иран >> Нехбандан


ПОГОДА в Нехбандане

  • Прогноз погоды в Нехбандане
  • Монитор погоды в Нехбандане

АРХИВ ПОГОДЫ в Нехбандане

Время (UTC), дата Ветер
(напр.,м/с)
 
Видим.   Явления Облачность Т
(С)
Тd
(С)
f
(%)
Тe
(С)
Тes
(С)
Комфортность P
(гПа)
Po
(гПа)
Тmin
(С)
Tmax
(С)
R
(мм)
R24
(мм)
S
(см)
21 12.07 В 2 15 км ясно +30.5 -4.2 10 +27 +27 жарко 992.5 872.1
03 13.07 СЗ 4 20 км ясно +34.2 -6.2 7 +30 +32 жарко 992.8 872.4 +27.8
06 13.07 С 4 20 км ясно +37.4 -5.7 6 +33 +45 жарко 994.1 873.5
09 13.07 СВ 2 20 км ясно +40.8 -11.3 3 +36 +57 опасность
солнечного
удара
992.8 872.2
12 13.07 штиль 0 20 км ясно +41.4 -12.3 3 +37 +47 очень
жарко
991.5 870.8
15 13.07 СВ 6 15 км ясно +37.7 -14.6 3 +33 +33 жарко 991.3 871.0 +42.0
18 13.07 СВ 5 15 км ясно +34.5 -7.6 6 +30 +30 жарко 992.6 872.2
21 13.07 С 6 15 км ясно +33.3 -6.5 7 +29 +29 жарко 991.5 871.6
00 14.07 СЗ 6 15 км ясно +32.0 -5.2 9 +28 +28 жарко 991.3 871.3
03 14.07 СВ 6 20 км ясно +33.4 -5.6 8 +29 +31 жарко 993.1 872.5 +31.5
06 14.07 С 7 20 км ясно +37.0 -10.4 4 +32 +37 жарко 994.1 873.4
09 14.07 С 8 20 км ясно +40.6 -27.2 1 +36 +39 очень
жарко
992.1 872.0
12 14.07 С 4 20 км ясно +41.1 -16.8 2 +36 +41 очень
жарко
990.9 870.8
15 14.07 С 8 18 км ясно +37.6 -9.6 5 +33 +33 жарко 991.6 871.1 +41.5
18 14.07 С 6 15 км ясно +34.5 -3.5 9 +31 +31 жарко 992.1 871.7
21 14.07 С 12 15 км ясно +32.7 -3.0 10 +29 +29 жарко 990.8 870.9
00 15.07 С 9 15 км ясно +31.3 -4.2 10 +28 +28 жарко 990.5 870.5
03 15.07 С 11 20 км ясно +32.3 -5.4 8 +28 +28 жарко 992.7 871.9 +30.7
06 15.07 С 3 20 км ясно +35.5 -4.5 8 +31 +46 жарко 993.5 872.7
09 15.07 С 7 20 км ясно +38.7 -9.7 4 +34 +40 очень
жарко
992.1 871.6
12 15.07 С 6 20 км ясно +38.8 -5.7 6 +34 +37 очень
жарко
991.3 870.7
15 15.07 С 7 8000 м пыльный позёмок ясно +34.7 0.0 11 +31 +31 жарко 991.9 870.8 +39.0
18 15.07 СЗ 9 8000 м пыльный позёмок ясно +32.2 +3.8 17 +30 +30 жарко 992.6 871.6
21 15.07 СЗ 7 8000 м пыльный позёмок ясно +30.5 +4.9 20 +29 +29 жарко 990.2 869.8
00 16.07 С 7 8000 м пыльный позёмок ясно +29.7 +1.6 16 +27 +27 жарко 989.9 869.4
03 16.07 С 6 12 км ясно +31.6 -1.0 12 +28 +30 жарко 991.9 870.7 +29.5
06 16.07 С 9 18 км ясно +35.9 -10.1 5 +31 +33 жарко 993.0 871.8
09 16.07 С 5 18 км ясно +39.4 -25.4 1 +34 +45 очень
жарко
992.3 871.4
12 16.07 С 4 20 км ясно +40.0 -14.2 3 +35 +40 очень
жарко
991.4 870.7
15 16.07 С 8 18 км ясно +37.2 -29.7 1 +32 +32 жарко 992.4 871.3 +40.7
18 16.07 С 6 15 км ясно +33.9 -16.0 3 +29 +29 жарко 993.5 872.5
21 16.07 С 7 15 км ясно +32.5 -12.2 5 +28 +28 жарко 992.3 871.9
00 17.07 С 5 15 км ясно +31.4 -12.6 5 +27 +27 жарко 992.2 871.7
03 17.07 С 5 20 км ясно +33.7 -16.3 3 +29 +31 жарко 993.8 873.0 +31.0
06 17.07 С 2 20 км ясно +38.1 -28.8 1 +33 +50 жарко 993.9 873.2
09 17.07 СВ 3 20 км ясно +40.9 -27.8 1 +36 +53 опасность
солнечного
удара
992.9 872.6
12 17.07 С 2 20 км ясно +41.6 -26.2 1 +37 +44 очень
жарко
991.6 871.4
15 17.07 С 3 15 км ясно +37.7 -22.0 2 +33 +33 жарко 992.2 871.6 +42.6
18 17.07 С 6 15 км ясно +34.1 -18.4 3 +29 +29 жарко 993.5 872.9
21 17.07 С 7 15 км ясно +32.4 -15.9 4 +28 +28 жарко 992.9 872.6
00 18.07 С 6 15 км ясно +31.2 -15.8 4 +27 +27 жарко 992.2 871.9
03 18.07 СЗ 7 20 км ясно +32.6 -12.7 5 +28 +29 жарко 993.8 872.9 +30.8
06 18.07 С 6 20 км ясно +37.5 -22.9 2 +33 +39 жарко 994.6 873.8
09 18.07 С 3 18 км ясно +40.2 -25.9 1 +35 +52 опасность
солнечного
удара
993.2 872.7
12 18.07 С 2 20 км ясно +41.8 -25.5 1 +37 +44 очень
жарко
991.5 871.3
15 18.07 СВ 4 18 км ясно +38.4 -28.8 1 +33 +33 жарко 992.3 871.6 +42.4
18 18.07 С 7 15 км ясно +34.5 -13.2 4 +30 +30 жарко 993.1 872.6
21 18.07 С 8 15 км ясно +33.0 -11.4 5 +28 +28 жарко 992.3 872.1
00 19.07 С 7 15 км ясно +32.0 -13.1 5 +27 +27 жарко 992.3 872.2
03 19.07 С 8 20 км ясно +33.8 -10.8 5 +29 +30 жарко 993.4 872.9 +31.8
06 19.07 СЗ 6 20 км ясно +38.1 -13.3 3 +33 +40 жарко 994.1 873.6
09 19.07 штиль 0 20 км ясно +42.4 -26.6 1 +37 +65 опасность
солнечного
удара
993.0 873.0
12 19.07 СВ 4 20 км ясно +41.8 -23.2 1 +37 +42 очень
жарко
992.3 872.1
15 19.07 СВ 3 15 км ясно +38.0 -20.6 2 +33 +33 жарко 993.1 872.5 +42.9

 

Местоположение метеостанции Нехбандан (Иран): широта 31.53 долгота 60.03 высота над уровнем моря 1211 м.

В архиве по умолчанию представлена погода в Нехбандане за последнюю неделю. Архивные данные за месяц целиком и за предыдущие месяцы, начиная с января 2011 года, Вы можете получить, выбрав интересующий диапазон дат из раскрывающегося списка и нажав кнопку "Ввод!".


*Определитесь, кто Вы:
робот инопланетянин человек

Внимание! Время в таблицах - всемирное. Для получения местного времени необходимо прибавить поправку, которая равна 3.5 ч.

Смотрите также архив погоды в соседних городах и на ближайших метеорологических станциях:

Погода в Заболе (Иран) (148 км)
Погода в Бирдженде (Иран) (168 км)
Погода в Захедане (Иран) (243 км)
Погода в Баме (Иран) (312 км)
Погода в Кермане (Иран) (325 км)
Погода в Фердоусе (Иран) (327 км)
Погода в Герате (Афганистан) (362 км)
Погода в Табасе (Иран) (371 км)
Погода в Нок-Кунди (Пакистан) (399 км)
Погода в Лашкаргахе (Афганистан) (411 км)

Пояснения к столбцам:

Ветер - указаны скорость ветра в м/с - средняя за 10 мин, порывы в срок и между сроками (в фигурных скобках) и направление, откуда дует ветер: С - северный, СВ - северо-восточный, В - восточный, ЮВ - юго-восточный, Ю - южный, ЮЗ - юго-западный, З - западный, СЗ - северо-западный.
Видимость - горизонтальная дальность видимости в метрах или километрах. При видимости от 1 до 10 км при отсутствии осадков обычно наблюдается дымка, при ухудшении видимости до 1 км и менее - туман. В сухую погоду видимость может ухудшаться дымом, пылью или мглою.
Явления - указаны атмосферные явления, наблюдавшиеся в срок или в последний час перед сроком; фигурными скобками обозначены явления, наблюдавшиеся между сроками (за 1-3 часа до срока); квадратными скобками обозначены град или гололедные отложения с указанием их диаметра в мм.
Облачность - указаны через наклонную черту общая и нижняя облачность в баллах и высота нижней границы облаков в метрах; квадратными скобками обозначены формы облаков: Ci - перистые, Cs - перисто-слоистые, Cc - перисто-кучевые, Ac - высококучевые, As - высокослоистые, Sc - слоисто-кучевые, Ns - слоисто-дождевые, Cu - кучевые, Cb - кучево-дождевые. Подробнее классификацию облаков см. в Атласе облаков (PDF).
T - Температура воздуха - температура, измеренная на высоте 2 м над землей.
Td - Температура точки росы - температура, при понижении до которой содержащийся в воздухе водяной пар достигнет насыщения.
f - Относительная влажность воздуха - влажноcть воздуха, измеренная на высоте 2 м над землей.
Te - Эффективная температура - температура, которую ощущает одетый по сезону человек в тени. Характеристика душности погоды. При расчете учитывается влияние влажности воздуха и скорости ветра на теплоощущения человека.
Tes - Эффективная температура на солнце - температура, которую ощущает человек, с поправкой на солнечный нагрев. Характеристика знойности погоды. Зависит от высоты солнца над горизонтом, облачности и скорости ветра. Ночью, в пасмурную погоду, а также при ветре 12 м/с и более поправка равна нулю.
P - Атмосферное давление - приведенное к уровню моря атмосферное давление.
Po - Атмосферное давление - измеренное на уровне метеостанции атмосферное давление.
Tmin - Минимальная температура - минимум температуры воздуха на высоте 2 м над землей.
Tmax - Максимальная температура - максимум температуры воздуха на высоте 2 м над землей.
R - Количество осадков - Количество выпавших осадков за период времени, мм. При наведении курсора мыши на число - период времени, за который выпало указанное количество осадков.
R24 - Количество осадков - Количество выпавших осадков за 24 часа, мм.
S - Снежный покров - Высота снежного покрова, см. При наведении курсора мыши на число - состояние снежного покрова и степень покрытия местности в баллах.